When you browse on this site, cookies collect data to enhance your experience and personalize the content and advertising you see.
Visit our Privacy Policy to learn more. By continuing to use the site, you agree to this use of cookies and data.
  • In Belgium
  • List of Countries
  • For 7 days
  • Water Temperature
  • Satellite Maps
  • Weather Map
  • Weather Widgets
  • user-avatar
    Login

    Hourly Weather Heidelberg

    Today, 19 April, Friday

    Time Temperature Precipitation Wind Pressure Humidity
    00:00 +12°C° 0 mm 3 mps 739 mmHg 65%
    01:00 +11°C° 0 mm 3 mps 739 mmHg 66%
    02:00 +10°C° 0 mm 3 mps 739 mmHg 69%
    03:00 +10°C° 0 mm 3 mps 739 mmHg 71%
    04:00 +9°C° 0 mm 3 mps 739 mmHg 73%
    05:00 +9°C° 0 mm 3 mps 739 mmHg 72%
    06:00 +9°C° 0 mm 3 mps 740 mmHg 72%
    07:00 +9°C° 0 mm 3 mps 740 mmHg 72%
    08:00 +11°C° 0 mm 3 mps 740 mmHg 67%
    09:00 +13°C° 0 mm 3 mps 740 mmHg 62%
    10:00 +16°C° 0 mm 3 mps 741 mmHg 58%
    11:00 +17°C° 0 mm 3 mps 741 mmHg 54%
    12:00 +19°C° 0 mm 3 mps 741 mmHg 51%
    13:00 +21°C° 0 mm 3 mps 741 mmHg 47%
    14:00 +21°C° 0 mm 3 mps 741 mmHg 46%
    15:00 +21°C° 0 mm 4 mps 741 mmHg 44%
    16:00 +22°C° 0 mm 4 mps 740 mmHg 43%
    17:00 +20°C° 0 mm 3 mps 740 mmHg 47%
    18:00 +19°C° 0 mm 3 mps 740 mmHg 51%
    19:00 +17°C° 0 mm 2 mps 740 mmHg 55%
    20:00 +16°C° 0 mm 2 mps 740 mmHg 57%
    21:00 +15°C° 0 mm 2 mps 741 mmHg 59%
    22:00 +13°C° 0 mm 1 mps 741 mmHg 61%
    23:00 +13°C° 0 mm 2 mps 741 mmHg 64%

    Tomorrow, 20 April, Saturday

    Time Temperature Precipitation Wind Pressure Humidity
    00:00 +12°C° 0 mm 2 mps 741 mmHg 66%
    01:00 +12°C° 0 mm 2 mps 741 mmHg 69%
    02:00 +10°C° 0 mm 2 mps 741 mmHg 71%
    03:00 +10°C° 0 mm 2 mps 741 mmHg 73%
    04:00 +9°C° 0 mm 2 mps 741 mmHg 75%
    05:00 +10°C° 0 mm 2 mps 741 mmHg 74%
    06:00 +10°C° 0 mm 2 mps 741 mmHg 73%
    07:00 +10°C° 0 mm 2 mps 741 mmHg 72%
    08:00 +12°C° 0 mm 3 mps 741 mmHg 66%
    09:00 +14°C° 0 mm 3 mps 741 mmHg 60%
    10:00 +17°C° 0 mm 3 mps 741 mmHg 55%
    11:00 +18°C° 0 mm 4 mps 741 mmHg 50%
    12:00 +20°C° 0 mm 4 mps 741 mmHg 46%
    13:00 +21°C° 0 mm 4 mps 740 mmHg 41%
    14:00 +21°C° 0 mm 4 mps 740 mmHg 39%
    15:00 +22°C° 0 mm 4 mps 740 mmHg 37%
    16:00 +22°C° 0 mm 4 mps 739 mmHg 36%
    17:00 +20°C° 0 mm 3 mps 739 mmHg 40%
    18:00 +19°C° 0 mm 3 mps 739 mmHg 44%
    19:00 +17°C° 0 mm 2 mps 739 mmHg 49%
    20:00 +16°C° 0 mm 2 mps 739 mmHg 51%
    21:00 +15°C° 0 mm 2 mps 739 mmHg 54%
    22:00 +14°C° 0 mm 2 mps 739 mmHg 56%
    23:00 +13°C° 0 mm 2 mps 739 mmHg 60%

    Day after tomorrow, 21 April, Sunday

    Time Temperature Precipitation Wind Pressure Humidity
    00:00 +13°C° 0 mm 2 mps 739 mmHg 63%
    01:00 +12°C° 0 mm 2 mps 739 mmHg 67%
    02:00 +10°C° 0 mm 2 mps 738 mmHg 69%
    03:00 +10°C° 0 mm 2 mps 738 mmHg 70%
    04:00 +9°C° 0 mm 2 mps 738 mmHg 72%
    05:00 +9°C° 0 mm 2 mps 738 mmHg 70%
    06:00 +10°C° 0 mm 2 mps 737 mmHg 69%
    07:00 +10°C° 0 mm 2 mps 737 mmHg 68%
    08:00 +13°C° 0 mm 2 mps 737 mmHg 61%
    09:00 +15°C° 0 mm 2 mps 737 mmHg 54%
    10:00 +17°C° 0 mm 2 mps 737 mmHg 47%
    11:00 +18°C° 0 mm 3 mps 736 mmHg 44%
    12:00 +20°C° 0 mm 3 mps 736 mmHg 41%
    13:00 +21°C° 0 mm 3 mps 735 mmHg 38%
    14:00 +21°C° 0 mm 3 mps 735 mmHg 38%
    15:00 +21°C° 0 mm 4 mps 734 mmHg 38%
    16:00 +21°C° 0 mm 4 mps 734 mmHg 38%
    17:00 +20°C° 0 mm 3 mps 733 mmHg 42%
    18:00 +19°C° 0 mm 3 mps 733 mmHg 47%
    19:00 +17°C° 0 mm 2 mps 732 mmHg 51%
    20:00 +16°C° 0 mm 2 mps 732 mmHg 53%
    21:00 +15°C° 0 mm 2 mps 732 mmHg 55%
    22:00 +14°C° 0 mm 2 mps 732 mmHg 57%
    23:00 +13°C° 0 mm 2 mps 732 mmHg 61%

    22 April, Monday

    Time Temperature Precipitation Wind Pressure Humidity
    00:00 +12°C° 0 mm 2 mps 732 mmHg 64%
    01:00 +12°C° 0 mm 2 mps 731 mmHg 67%
    02:00 +10°C° 0 mm 2 mps 731 mmHg 70%
    03:00 +10°C° 0 mm 2 mps 730 mmHg 72%
    04:00 +9°C° 0 mm 2 mps 730 mmHg 75%
    05:00 +9°C° 0 mm 2 mps 730 mmHg 73%
    06:00 +10°C° 0 mm 2 mps 729 mmHg 71%
    07:00 +10°C° 0 mm 2 mps 729 mmHg 69%
    08:00 +12°C° 0 mm 3 mps 729 mmHg 62%
    09:00 +14°C° 0 mm 3 mps 728 mmHg 56%
    10:00 +17°C° 0 mm 4 mps 728 mmHg 50%
    11:00 +18°C° 0 mm 4 mps 727 mmHg 47%
    12:00 +19°C° 0 mm 4 mps 727 mmHg 44%
    13:00 +20°C° 0 mm 4 mps 726 mmHg 41%
    14:00 +21°C° 0 mm 4 mps 726 mmHg 41%
    15:00 +21°C° 0 mm 4 mps 725 mmHg 42%
    16:00 +21°C° 0 mm 4 mps 724 mmHg 42%
    17:00 +20°C° 0 mm 4 mps 724 mmHg 46%
    18:00 +19°C° 0 mm 4 mps 723 mmHg 50%
    19:00 +17°C° 0 mm 4 mps 723 mmHg 54%
    20:00 +15°C° 0 mm 4 mps 723 mmHg 55%
    21:00 +15°C° 0 mm 4 mps 723 mmHg 56%
    22:00 +14°C° 0 mm 5 mps 723 mmHg 57%
    23:00 +13°C° 0 mm 4 mps 722 mmHg 60%

    23 April, Tuesday

    Time Temperature Precipitation Wind Pressure Humidity
    00:00 +12°C° 0 mm 4 mps 722 mmHg 63%
    01:00 +11°C° 0 mm 3 mps 721 mmHg 67%
    02:00 +10°C° 0 mm 3 mps 721 mmHg 70%
    03:00 +9°C° 0 mm 2 mps 721 mmHg 73%
    04:00 +9°C° 0 mm 2 mps 721 mmHg 77%
    05:00 +9°C° 0 mm 2 mps 721 mmHg 77%
    06:00 +9°C° 0 mm 2 mps 721 mmHg 77%
    07:00 +9°C° 0 mm 2 mps 721 mmHg 77%
    08:00 +12°C° 0 mm 2 mps 721 mmHg 71%
    09:00 +14°C° 0 mm 2 mps 721 mmHg 65%
    10:00 +16°C° 0 mm 1 mps 721 mmHg 59%
    11:00 +19°C° 0 mm 1 mps 721 mmHg 54%
    12:00 +20°C° 0 mm 1 mps 721 mmHg 50%
    13:00 +22°C° 0 mm 1 mps 721 mmHg 46%
    14:00 +23°C° 0 mm 1 mps 721 mmHg 45%
    15:00 +23°C° 0 mm 1 mps 721 mmHg 45%
    16:00 +24°C° 0 mm 1 mps 720 mmHg 44%
    17:00 +20°C° 0 mm 0 mps 721 mmHg 49%
    18:00 +19°C° 0 mm 0 mps 721 mmHg 53%
    19:00 +18°C° 0 mm 0 mps 721 mmHg 58%
    20:00 +17°C° 0 mm 0 mps 722 mmHg 60%
    21:00 +16°C° 0 mm 0 mps 722 mmHg 62%
    22:00 +15°C° 0 mm 0 mps 723 mmHg 64%
    23:00 +15°C° 0 mm 0 mps 723 mmHg 67%

    24 April, Wednesday

    Time Temperature Precipitation Wind Pressure Humidity
    00:00 +15°C° 0 mm 1 mps 723 mmHg 70%
    01:00 +14°C° 0 mm 1 mps 724 mmHg 73%
    02:00 +14°C° 0 mm 1 mps 724 mmHg 76%
    03:00 +14°C° 0 mm 1 mps 725 mmHg 79%
    04:00 +13°C° 0 mm 1 mps 725 mmHg 82%
    05:00 +14°C° 0 mm 1 mps 726 mmHg 80%
    06:00 +14°C° 0 mm 1 mps 726 mmHg 78%
    07:00 +15°C° 0 mm 1 mps 726 mmHg 77%
    08:00 +16°C° 0 mm 2 mps 727 mmHg 69%
    09:00 +18°C° 0 mm 2 mps 727 mmHg 62%
    10:00 +19°C° 0 mm 2 mps 728 mmHg 55%
    11:00 +20°C° 0 mm 2 mps 728 mmHg 52%
    12:00 +23°C° 0 mm 1 mps 728 mmHg 48%
    13:00 +24°C° 0 mm 1 mps 728 mmHg 45%
    14:00 +24°C° 0 mm 1 mps 727 mmHg 45%
    15:00 +24°C° 0 mm 2 mps 727 mmHg 45%
    16:00 +24°C° 0 mm 2 mps 727 mmHg 44%
    17:00 +23°C° 0 mm 2 mps 727 mmHg 50%
    18:00 +21°C° 0 mm 2 mps 727 mmHg 56%
    19:00 +20°C° 0 mm 2 mps 727 mmHg 61%
    20:00 +19°C° 0 mm 2 mps 727 mmHg 63%
    21:00 +19°C° 0 mm 2 mps 727 mmHg 65%
    22:00 +18°C° 0 mm 2 mps 727 mmHg 67%
    23:00 +17°C° 0 mm 2 mps 727 mmHg 70%
    Show more